Location: Coyote Lake
(37.1190°N, 121.5480°W)
Time: 06:46:52
(UTC-08:00)

Tiangong 2 - Visible Passes

Search period start: 21 January 2018 00:00
Search period end: 31 January 2018 00:00
Orbit: 384 x 390 km, 42.8° (Epoch: 20 January)

Date Brightness Start Highest point End Pass type
(mag) Time Alt. Az. Time Alt. Az. Time Alt. Az.
21 Jan 2.1 05:33:43 38° NNE 05:33:43 38° NNE 05:36:08 10° ENE visible
22 Jan 2.3 06:10:06 22° NW 06:11:21 29° N 06:14:12 10° ENE visible
23 Jan 3.4 05:14:09 20° NE 05:14:09 20° NE 05:15:26 10° ENE visible
23 Jan 2.4 06:46:53 10° WNW 06:49:45 30° N 06:52:38 10° ENE visible
24 Jan 2.4 05:50:26 27° NNW 05:50:51 28° N 05:53:40 10° ENE visible
25 Jan 4.3 04:54:24 12° NE 04:54:24 12° NE 04:54:47 10° ENE visible
25 Jan 2.1 06:26:40 13° NW 06:29:13 36° NNE 06:32:13 10° E visible
26 Jan 2.5 05:30:38 29° NNE 05:30:38 29° NNE 05:33:12 10° ENE visible
27 Jan 1.5 06:06:53 23° NW 06:08:35 52° NNE 06:11:43 10° E visible
28 Jan 3.1 05:10:53 27° ENE 05:10:53 27° ENE 05:12:44 10° E visible
29 Jan 1.0 05:47:11 52° WNW 05:47:52 88° NNE 05:51:04 10° ESE visible
30 Jan 4.1 04:51:16 17° E 04:51:16 17° E 04:52:12 10° E visible
30 Jan 2.5 06:23:33 13° W 06:25:44 26° SW 06:28:27 10° SSE visible
